Regional Weather Roundup
Issued by NWS

Home | Current Version | Previous Version | Graphics & Text | Print | Product List | Glossary On
Versions: 1 2 3 4 5 6 7 8 9 10 11 12 13 14 15 16 17 18 19 20 21 22 23 24 25 26 27 28 29 30 31 32 33 34 35 36 37 38 39 40 41 42 43 44 45 46 47 48 49 50
252
ASUS43 KFSD 261202
RWRSD

WEATHER ROUNDUP FOR SOUTH DAKOTA
NATIONAL WEATHER SERVICE SIOUX FALLS SD
700 AM CDT TUE SEP 26 2017

NOTE: "FAIR" INDICATES FEW OR NO CLOUDS BELOW 12,000 FEET WITH NO
SIGNIFICANT WEATHER AND/OR OBSTRUCTIONS TO VISIBILITY.


SDZ001>005-009-010-012>017-261300-
NORTHWEST AND NORTH CENTRAL SOUTH DAKOTA

CITY           SKY/WX    TMP DP  RH WIND       PRES   REMARKS
FAITH            N/A     45  45 100 S8        30.08S
MOBRIDGE       MOCLDY    45  43  93 N5        30.09R
$$

SDZ012>016-024>037-041>051-057-063-072>074-261300-
SOUTHWEST AND SOUTH CENTRAL SOUTH DAKOTA

CITY           SKY/WX    TMP DP  RH WIND       PRES   REMARKS
RAPID CTY ARPT CLEAR     39  37  93 SE5       30.09
PIERRE         PTCLDY    42  41  96 W6        30.10R FOG
CUSTER         PTCLDY    37  35  92 CALM      30.11R
ELLSWORTH AFB  CLEAR     43  43 100 S6        30.08S
PHILIP         CLOUDY    43  43 100 NW3       30.10R
PINE RIDGE     CLEAR     42  40  92 SW3       30.11S
SPEARFISH      FAIR      39  37  93 W3        30.09S
WINNER         CLOUDY    45  43  93 W6        30.13R
$$

SDZ004>011-016>023-039-040-261300-
NORTHEAST SOUTH DAKOTA

CITY           SKY/WX    TMP DP  RH WIND       PRES   REMARKS
ABERDEEN       CLOUDY    48  48 100 NW9       30.08R
WATERTOWN      CLOUDY    48  48 100 NW13      30.03S
BROOKINGS      CLOUDY    49  48  97 NW12      30.04R
SISSETON         N/A     50  50 100 NW9       30.03R
$$

SDZ017-020-022-023-036>040-048>070-261300-
SOUTHEAST SOUTH DAKOTA

CITY           SKY/WX    TMP DP  RH WIND       PRES   REMARKS
SIOUX FALLS    CLOUDY    51  51 100 NW12      30.04R
HURON          CLOUDY    48  47  96 NW9       30.09R
CHAMBERLAIN    FOG       46  46 100 NW7       30.12R VSB 1/2
MITCHELL       CLOUDY    49  47  93 NW10      30.09R
YANKTON        CLOUDY    50  48  93 NW13      30.08R
$$

ABBREVIATIONS USED IN REMARKS
   TC - TEMPERATURE IN CELSIUS
  WCI - WIND CHILL INDEX
   HX - HEAT INDEX
  VSB - VISIBILITY





USA.gov is the U.S. government's official web portal to all federal, state and local government web resources and services.